Elbert, CO

2:03 AM MST on February 22, 2017 (GMT -0700)
Monument Pass

Weather History for KMNH - November, 2013

Change the Weather History Date:

Sunday, November 3, 2013

  Actual Average Record
Temperature  
Mean Temperature 47 °F -  
Max Temperature 62 °F - 66 °F (2015)
Min Temperature 32 °F - 12 °F (2011)
Degree Days  
Heating Degree Days 18    
Month to date heating degree days  
Cooling Degree Days 0    
Month to date cooling degree days  
Moisture  
Dew Point 13 °F    
Average Humidity 26    
Maximum Humidity 87    
Minimum Humidity 14    
Precipitation  
Precipitation 0.00 in - 0.03 in (2011)
Sea Level Pressure  
Sea Level Pressure 29.74 in    
Wind  
Wind Speed 12 mph (WSW)    
Max Wind Speed 25 mph    
Max Gust Speed 36 mph    
Visibility 10 miles    
Events      
T = Trace of Precipitation, MM = Missing Value Source: NWS Daily Summary

Daily Weather History Graph

Daily Weather History Graph

Search for Another Location

Airport or City:

Trip Planner

Search our weather history database for the weather conditions in past years. The results will help you decide how hot, cold, wet, or windy it might be!

Date:

Astronomy

Nov. 03, 2013 Rise Set
Actual Time 6:28 AM MST 4:54 PM MST
Civil Twilight 6:00 AM MST 5:22 PM MST
Nautical Twilight 5:29 AM MST 5:54 PM MST
Astronomical Twilight 4:57 AM MST 6:25 PM MST
Moon 6:35 AM MST (11/3) 5:11 PM MST (11/3)
Length of Visible Light 11h 21m
Length of Day
10h 26m
New Moon, 0% of the Moon is Illuminated
Nov 3
New Moon
Nov 9
First Quarter
Nov 17
Full
Nov 25
Last Quarter
Dec 2
New

Hourly Weather History & Observations

Time (MST) Temp. Windchill Dew Point Humidity Pressure Visibility Wind Dir Wind Speed Gust Speed Precip Events Conditions
12:12 AM 50.0 °F - 3.2 °F 15% 29.88 in 10.0 mi SW 9.2 mph - N/A   Clear
12:32 AM 46.4 °F 41.9 °F 3.2 °F 17% 29.88 in 10.0 mi SW 9.2 mph - N/A   Clear
12:51 AM 46.4 °F 42.9 °F 5.0 °F 18% 29.87 in 10.0 mi SW 6.9 mph - N/A   Clear
1:11 AM 42.8 °F 38.6 °F 8.6 °F 25% 29.86 in 10.0 mi SSW 6.9 mph - N/A   Clear
1:32 AM 44.6 °F 40.2 °F 10.4 °F 25% 29.86 in 10.0 mi SSW 8.1 mph - N/A   Clear
1:52 AM 46.4 °F 41.9 °F 8.6 °F 22% 29.85 in 10.0 mi SSW 9.2 mph - N/A   Clear
1:12 AM 46.4 °F 44.3 °F 8.6 °F 22% 29.84 in 10.0 mi SSW 4.6 mph - N/A   Clear
1:32 AM 42.8 °F 38.6 °F 12.2 °F 29% 29.85 in 10.0 mi SSW 6.9 mph - N/A   Clear
1:52 AM 44.6 °F 40.7 °F 12.2 °F 27% 29.84 in 10.0 mi SSW 6.9 mph - N/A   Clear
2:12 AM 44.6 °F 40.2 °F 10.4 °F 25% 29.84 in 10.0 mi SSW 8.1 mph - N/A   Clear
2:32 AM 48.2 °F - 10.4 °F 22% 29.83 in 10.0 mi SW 9.2 mph - N/A   Clear
2:52 AM 46.4 °F 40.4 °F 10.4 °F 23% 29.81 in 10.0 mi West 13.8 mph - N/A   Clear
3:12 AM 50.0 °F - 6.8 °F 17% 29.80 in 10.0 mi WSW 15.0 mph 20.7 mph N/A   Clear
3:32 AM 50.0 °F - 5.0 °F 16% 29.79 in 10.0 mi WSW 11.5 mph 19.6 mph N/A   Clear
3:52 AM 51.8 °F - 5.0 °F 15% 29.79 in 10.0 mi SW 15.0 mph 24.2 mph N/A   Clear
4:12 AM 48.2 °F - 6.8 °F 19% 29.79 in 10.0 mi WSW 10.4 mph - N/A   Clear
4:32 AM 46.4 °F 41.1 °F 6.8 °F 20% 29.77 in 10.0 mi West 11.5 mph - N/A   Clear
4:52 AM 46.4 °F 40.7 °F 6.8 °F 20% 29.76 in 10.0 mi WSW 12.7 mph - N/A   Clear
5:11 AM 51.8 °F - 6.8 °F 16% 29.75 in 10.0 mi WSW 24.2 mph 31.1 mph N/A   Clear
5:32 AM 50.0 °F - 8.6 °F 19% 29.76 in 10.0 mi WSW 16.1 mph 27.6 mph N/A   Clear
5:52 AM 46.4 °F 40.1 °F 10.4 °F 23% 29.75 in 10.0 mi West 15.0 mph - N/A   Clear
6:12 AM 46.4 °F 39.5 °F 10.4 °F 23% 29.73 in 10.0 mi WSW 17.3 mph 24.2 mph N/A   Clear
6:32 AM 44.6 °F 37.4 °F 10.4 °F 25% 29.71 in 10.0 mi West 16.1 mph 23.0 mph N/A   Clear
6:52 AM 44.6 °F 37.4 °F 10.4 °F 25% 29.73 in 10.0 mi WSW 16.1 mph - N/A   Clear
7:12 AM 44.6 °F 38.4 °F 10.4 °F 25% 29.74 in 10.0 mi WSW 12.7 mph 20.7 mph N/A   Clear
7:32 AM 46.4 °F 40.1 °F 12.2 °F 25% 29.74 in 10.0 mi WSW 15.0 mph - N/A   Clear
7:52 AM 44.6 °F 36.4 °F 12.2 °F 27% 29.73 in 10.0 mi WSW 20.7 mph 24.2 mph N/A   Clear
8:12 AM 46.4 °F 39.2 °F 12.2 °F 25% 29.73 in 10.0 mi WSW 18.4 mph 27.6 mph N/A   Clear
8:32 AM 44.6 °F 40.7 °F 12.2 °F 27% 29.73 in 10.0 mi WSW 6.9 mph - N/A   Clear
8:51 AM 46.4 °F 40.7 °F 12.2 °F 25% 29.73 in 10.0 mi WSW 12.7 mph - N/A   Clear
9:12 AM 46.4 °F 39.8 °F 10.4 °F 23% 29.72 in 10.0 mi WSW 16.1 mph 20.7 mph N/A   Clear
9:32 AM 53.6 °F - 10.4 °F 18% 29.71 in 10.0 mi WSW 19.6 mph 24.2 mph N/A   Clear
9:52 AM 55.4 °F - 10.4 °F 17% 29.71 in 10.0 mi West 17.3 mph 29.9 mph N/A   Clear
10:12 AM 57.2 °F - 10.4 °F 16% 29.71 in 10.0 mi West 21.9 mph 33.4 mph N/A   Clear
10:32 AM 59.0 °F - 10.4 °F 15% 29.71 in 10.0 mi West 21.9 mph 32.2 mph N/A   Clear
10:52 AM 59.0 °F - 10.4 °F 15% 29.71 in 10.0 mi West 23.0 mph 33.4 mph N/A   Clear
11:12 AM 60.8 °F - 10.4 °F 14% 29.70 in 10.0 mi WSW 25.3 mph 29.9 mph N/A   Clear
11:32 AM 60.8 °F - 10.4 °F 14% 29.69 in 10.0 mi WSW 25.3 mph 35.7 mph N/A   Clear
11:52 AM 60.8 °F - 12.2 °F 15% 29.69 in 10.0 mi West 18.4 mph 31.1 mph N/A   Clear
12:12 PM 60.8 °F - 12.2 °F 15% 29.68 in 10.0 mi West 16.1 mph 27.6 mph N/A   Clear
12:32 PM 60.8 °F - 14.0 °F 16% 29.67 in 10.0 mi WSW 19.6 mph - N/A   Clear
12:52 PM 60.8 °F - 14.0 °F 16% 29.67 in 10.0 mi WSW 19.6 mph 24.2 mph N/A   Clear
1:12 PM 60.8 °F - 12.2 °F 15% 29.65 in 10.0 mi WSW 15.0 mph 23.0 mph N/A   Clear
1:32 PM 62.6 °F - 14.0 °F 15% 29.65 in 10.0 mi West 12.7 mph 20.7 mph N/A   Clear
1:52 PM 59.0 °F - 14.0 °F 17% 29.65 in 10.0 mi WSW 10.4 mph 20.7 mph N/A   Clear
2:12 PM 60.8 °F - 14.0 °F 16% 29.65 in 10.0 mi West 20.7 mph 27.6 mph N/A   Clear
2:32 PM 59.0 °F - 14.0 °F 17% 29.65 in 10.0 mi WSW 19.6 mph 24.2 mph N/A   Clear
2:52 PM 60.8 °F - 14.0 °F 16% 29.65 in 10.0 mi WSW 17.3 mph 24.2 mph N/A   Clear
3:12 PM 59.0 °F - 14.0 °F 17% 29.65 in 10.0 mi WSW 18.4 mph 24.2 mph N/A   Clear
3:32 PM 53.6 °F - 14.0 °F 21% 29.65 in 10.0 mi WSW 11.5 mph 18.4 mph N/A   Clear
3:52 PM 59.0 °F - 14.0 °F 17% 29.65 in 10.0 mi SW 11.5 mph - N/A   Clear
4:11 PM 53.6 °F - 17.6 °F 24% 29.65 in 10.0 mi SW 10.4 mph - N/A   Clear
4:32 PM 51.8 °F - 17.6 °F 26% 29.65 in 10.0 mi SSW 6.9 mph - N/A   Clear
4:52 PM 50.0 °F - 17.6 °F 28% 29.65 in 10.0 mi SSW 6.9 mph - N/A   Mostly Cloudy
5:12 PM 50.0 °F - 19.4 °F 30% 29.67 in 10.0 mi SW 9.2 mph - N/A   Overcast
5:32 PM 51.8 °F - 17.6 °F 26% 29.67 in 10.0 mi WSW 8.1 mph - N/A   Overcast
5:52 PM 50.0 °F - 17.6 °F 28% 29.68 in 10.0 mi WSW 8.1 mph - N/A   Overcast
6:12 PM 50.0 °F - 15.8 °F 26% 29.68 in 10.0 mi West 13.8 mph - N/A   Mostly Cloudy
6:32 PM 50.0 °F - 14.0 °F 24% 29.69 in 10.0 mi West 11.5 mph - N/A   Mostly Cloudy
6:52 PM 46.4 °F 41.5 °F 14.0 °F 27% 29.69 in 10.0 mi West 10.4 mph - N/A   Mostly Cloudy
7:12 PM 42.8 °F 38.0 °F 14.0 °F 31% 29.69 in 10.0 mi WSW 8.1 mph - N/A   Scattered Clouds
7:32 PM 42.8 °F 39.3 °F 12.2 °F 29% 29.70 in 10.0 mi WSW 5.8 mph - N/A   Clear
7:52 PM 42.8 °F 38.0 °F 12.2 °F 29% 29.70 in 10.0 mi WSW 8.1 mph - N/A   Clear
8:12 PM 42.8 °F 37.0 °F 10.4 °F 27% 29.71 in 10.0 mi West 10.4 mph - N/A   Clear
8:32 PM 42.8 °F 38.0 °F 10.4 °F 27% 29.72 in 10.0 mi WSW 8.1 mph - N/A   Clear
8:52 PM 39.2 °F 35.0 °F 10.4 °F 31% 29.74 in 10.0 mi NNW 5.8 mph - N/A   Clear
9:12 PM 37.4 °F 27.8 °F 19.4 °F 48% 29.78 in 10.0 mi NW 17.3 mph 26.5 mph N/A   Clear
9:32 PM 35.6 °F 25.2 °F 26.6 °F 70% 29.79 in 10.0 mi North 18.4 mph 31.1 mph N/A   Clear
9:52 PM 33.8 °F 24.3 °F 26.6 °F 75% 29.81 in 10.0 mi NNE 13.8 mph 20.7 mph N/A   Clear
10:12 PM 32.0 °F 21.6 °F 28.4 °F 87% 29.82 in 10.0 mi North 15.0 mph - N/A   Clear
10:32 PM 32.0 °F 22.5 °F 26.6 °F 80% 29.84 in 10.0 mi North 12.7 mph - N/A   Mostly Cloudy
10:52 PM 32.0 °F 25.6 °F 26.6 °F 80% 29.85 in 10.0 mi North 6.9 mph - N/A   Overcast